TimeEST,TemperatureF,Dew PointF,Humidity,Sea Level PressureIn,VisibilityMPH,Wind Direction,Wind SpeedMPH,Gust SpeedMPH,PrecipitationIn,Events,Conditions,WindDirDegrees,DateUTC
12:55 AM,1.4,-7.6,66,30.16,10.0,Calm,Calm,-,N/A,,Clear,0,2013-01-03 05:55:00
1:15 AM,1.4,-5.8,72,30.16,10.0,North,6.9,-,N/A,,Clear,360,2013-01-03 06:15:00
1:35 AM,-0.4,-9.4,66,30.16,10.0,Calm,Calm,-,N/A,,Clear,0,2013-01-03 06:35:00
1:55 AM,-0.4,-7.6,72,30.15,10.0,Calm,Calm,-,N/A,,Clear,0,2013-01-03 06:55:00
2:15 AM,-0.4,-7.6,72,30.15,10.0,Calm,Calm,-,N/A,,Clear,0,2013-01-03 07:15:00
2:35 AM,-0.4,-7.6,72,30.16,10.0,Calm,Calm,-,N/A,,Clear,0,2013-01-03 07:35:00
3:35 AM,-2.2,-7.6,78,30.15,10.0,NNE,6.9,-,N/A,,Clear,20,2013-01-03 08:35:00
3:55 AM,-0.4,-9.4,66,30.14,10.0,Calm,Calm,-,N/A,,Clear,0,2013-01-03 08:55:00
4:15 AM,-0.4,-9.4,66,30.13,10.0,Calm,Calm,-,N/A,,Clear,0,2013-01-03 09:15:00
4:35 AM,-4.0,-13.0,65,30.14,10.0,Calm,Calm,-,N/A,,Clear,0,2013-01-03 09:35:00
5:15 AM,-2.2,-9.4,71,30.14,10.0,Calm,Calm,-,N/A,,Clear,0,2013-01-03 10:15:00
5:35 AM,-5.8,-11.2,77,30.15,10.0,Calm,Calm,-,N/A,,Clear,0,2013-01-03 10:35:00
5:55 AM,-5.8,-9.4,84,30.15,10.0,Calm,Calm,-,N/A,,Clear,0,2013-01-03 10:55:00
6:15 AM,-7.6,-13.0,77,30.14,10.0,Calm,Calm,-,N/A,,Clear,0,2013-01-03 11:15:00
6:35 AM,-7.6,-11.2,84,30.14,10.0,Calm,Calm,-,N/A,,Clear,0,2013-01-03 11:35:00
6:55 AM,-7.6,-11.2,84,30.14,10.0,South,3.5,-,N/A,,Clear,190,2013-01-03 11:55:00
7:15 AM,-7.6,-11.2,84,30.15,10.0,South,3.5,-,N/A,,Clear,190,2013-01-03 12:15:00
7:35 AM,-9.4,-11.2,92,30.15,10.0,Calm,Calm,-,N/A,,Clear,0,2013-01-03 12:35:00
7:55 AM,-11.2,-14.8,84,30.14,10.0,Calm,Calm,-,N/A,,Clear,0,2013-01-03 12:55:00
8:15 AM,-7.6,-9999,N/A,30.14,10.0,Calm,Calm,-,N/A,,Clear,0,2013-01-03 13:15:00
8:35 AM,-7.6,-11.2,84,30.14,10.0,Calm,Calm,-,N/A,,Clear,0,2013-01-03 13:35:00
9:15 AM,-2.2,-5.8,85,30.13,10.0,Calm,Calm,-,N/A,,Clear,0,2013-01-03 14:15:00
9:35 AM,-0.4,-5.8,78,30.13,10.0,Calm,Calm,-,N/A,,Clear,0,2013-01-03 14:35:00
9:55 AM,1.4,-5.8,72,30.13,10.0,Calm,Calm,-,N/A,,Clear,0,2013-01-03 14:55:00
10:15 AM,3.2,-7.6,61,30.14,10.0,South,3.5,-,N/A,,Clear,190,2013-01-03 15:15:00
10:35 AM,5.0,-7.6,56,30.14,10.0,South,3.5,-,N/A,,Clear,180,2013-01-03 15:35:00
10:55 AM,6.8,-5.8,56,30.13,10.0,South,4.6,-,N/A,,Clear,180,2013-01-03 15:55:00
11:35 AM,8.6,-5.8,52,30.10,10.0,Calm,Calm,-,N/A,,Clear,0,2013-01-03 16:35:00
11:55 AM,10.4,-5.8,48,30.09,10.0,Calm,Calm,-,N/A,,Clear,0,2013-01-03 16:55:00
12:15 PM,10.4,-5.8,48,30.08,10.0,Calm,Calm,-,N/A,,Clear,0,2013-01-03 17:15:00
12:35 PM,10.4,-5.8,48,30.07,10.0,Calm,Calm,-,N/A,,Clear,0,2013-01-03 17:35:00
12:55 PM,12.2,-5.8,45,30.06,10.0,Calm,Calm,-,N/A,,Clear,0,2013-01-03 17:55:00
2:15 PM,17.6,-4.0,38,30.03,10.0,Calm,Calm,-,N/A,,Clear,0,2013-01-03 19:15:00
2:35 PM,17.6,-4.0,38,30.02,10.0,Calm,Calm,-,N/A,,Clear,0,2013-01-03 19:35:00
2:55 PM,17.6,-5.8,35,30.02,10.0,Calm,Calm,-,N/A,,Clear,0,2013-01-03 19:55:00
3:15 PM,17.6,-4.0,38,30.02,10.0,Calm,Calm,-,N/A,,Clear,0,2013-01-03 20:15:00
3:35 PM,17.6,-4.0,38,30.02,10.0,Calm,Calm,-,N/A,,Clear,0,2013-01-03 20:35:00
3:55 PM,17.6,-4.0,38,30.01,10.0,Calm,Calm,-,N/A,,Clear,0,2013-01-03 20:55:00
4:15 PM,15.8,-0.4,49,30.00,10.0,Calm,Calm,-,N/A,,Clear,0,2013-01-03 21:15:00
4:35 PM,14.0,-0.4,53,30.01,10.0,Calm,Calm,-,N/A,,Clear,0,2013-01-03 21:35:00
4:55 PM,12.2,1.4,62,30.01,10.0,Calm,Calm,-,N/A,,Clear,0,2013-01-03 21:55:00
5:15 PM,10.4,-0.4,62,30.02,9.0,Calm,Calm,-,N/A,,Clear,0,2013-01-03 22:15:00
5:35 PM,10.4,1.4,67,30.02,10.0,Calm,Calm,-,N/A,,Partly Cloudy,0,2013-01-03 22:35:00
5:55 PM,8.6,-0.4,67,30.02,10.0,Calm,Calm,-,N/A,,Mostly Cloudy,0,2013-01-03 22:55:00
6:15 PM,8.6,1.4,73,30.01,10.0,Calm,Calm,-,N/A,,Scattered Clouds,0,2013-01-03 23:15:00
6:35 PM,8.6,1.4,73,30.02,10.0,Calm,Calm,-,N/A,,Mostly Cloudy,0,2013-01-03 23:35:00
7:35 PM,8.6,1.4,73,30.02,10.0,Calm,Calm,-,N/A,,Partly Cloudy,0,2013-01-04 00:35:00
8:15 PM,6.8,1.4,79,30.02,10.0,Calm,Calm,-,N/A,,Clear,0,2013-01-04 01:15:00
8:35 PM,6.8,1.4,79,30.01,10.0,Calm,Calm,-,N/A,,Clear,0,2013-01-04 01:35:00
8:55 PM,8.6,3.2,79,30.01,10.0,Calm,Calm,-,N/A,,Mostly Cloudy,0,2013-01-04 01:55:00
9:35 PM,8.6,1.4,73,30.01,10.0,Calm,Calm,-,N/A,,Clear,0,2013-01-04 02:35:00
9:55 PM,8.6,3.2,79,30.00,10.0,Calm,Calm,-,N/A,,Scattered Clouds,0,2013-01-04 02:55:00
10:15 PM,8.6,1.4,73,30.00,10.0,Calm,Calm,-,N/A,,Mostly Cloudy,0,2013-01-04 03:15:00
10:55 PM,8.6,1.4,73,29.99,10.0,Calm,Calm,-,N/A,,Overcast,0,2013-01-04 03:55:00
11:15 PM,8.6,3.2,79,29.99,10.0,Calm,Calm,-,N/A,,Overcast,0,2013-01-04 04:15:00
11:55 PM,6.8,3.2,85,29.97,10.0,Calm,Calm,-,N/A,,Partly Cloudy,0,2013-01-04 04:55:00